Time,TemperatureF,DewpointF,PressureIn,WindDirection,WindDirectionDegrees,WindSpeedMPH,WindSpeedGustMPH,Humidity,HourlyPrecipIn,Conditions,Clouds,dailyrainin,SoftwareType,DateUTC
2013-03-05 00:10:00,11.1,9.0,30.24,NE,42,0.0,-999.0,89,-99.99,,,0.00,weatherlink.com 1.10,2013-03-05 05:10:00,
2013-03-05 00:25:00,11.0,9.0,30.24,NE,42,0.0,-999.0,90,-99.99,,,0.00,weatherlink.com 1.10,2013-03-05 05:25:00,
2013-03-05 00:40:00,11.1,9.0,30.24,NE,42,0.0,-999.0,90,-99.99,,,0.00,weatherlink.com 1.10,2013-03-05 05:40:00,
2013-03-05 00:55:00,11.0,8.0,30.24,NE,41,0.0,-999.0,89,-99.99,,,0.00,weatherlink.com 1.10,2013-03-05 05:55:00,
2013-03-05 01:10:00,10.7,8.0,30.24,NE,41,0.0,-999.0,89,-99.99,,,0.00,weatherlink.com 1.10,2013-03-05 06:10:00,
2013-03-05 01:25:00,10.8,8.0,30.25,NE,42,0.0,-999.0,89,-99.99,,,0.00,weatherlink.com 1.10,2013-03-05 06:25:00,
2013-03-05 01:40:00,10.7,8.0,30.25,NE,42,0.0,-999.0,89,-99.99,,,0.00,weatherlink.com 1.10,2013-03-05 06:40:00,
2013-03-05 01:55:00,10.5,8.0,30.25,NE,42,0.0,-999.0,89,-99.99,,,0.00,weatherlink.com 1.10,2013-03-05 06:55:00,
2013-03-05 02:10:00,10.1,8.0,30.25,NE,41,0.0,-999.0,89,-99.99,,,0.00,weatherlink.com 1.10,2013-03-05 07:10:00,
2013-03-05 02:25:00,10.1,8.0,30.25,NE,41,0.0,-999.0,89,-99.99,,,0.00,weatherlink.com 1.10,2013-03-05 07:25:00,
2013-03-05 02:40:00,10.0,7.0,30.25,NE,42,0.0,-999.0,89,-99.99,,,0.00,weatherlink.com 1.10,2013-03-05 07:40:00,
2013-03-05 02:55:00,9.7,7.0,30.24,NE,42,0.0,-999.0,89,-99.99,,,0.00,weatherlink.com 1.10,2013-03-05 07:55:00,
2013-03-05 03:10:00,9.7,7.0,30.24,NE,42,0.0,-999.0,89,-99.99,,,0.00,weatherlink.com 1.10,2013-03-05 08:10:00,
2013-03-05 03:25:00,9.7,7.0,30.23,NE,42,0.0,-999.0,89,-99.99,,,0.00,weatherlink.com 1.10,2013-03-05 08:25:00,
2013-03-05 03:40:00,9.9,7.0,30.23,NE,42,0.0,-999.0,89,-99.99,,,0.00,weatherlink.com 1.10,2013-03-05 08:40:00,
2013-03-05 03:55:00,10.3,8.0,30.23,NE,42,0.0,-999.0,89,-99.99,,,0.00,weatherlink.com 1.10,2013-03-05 08:55:00,
2013-03-05 04:10:00,10.7,8.0,30.23,NE,41,0.0,-999.0,89,-99.99,,,0.00,weatherlink.com 1.10,2013-03-05 09:10:00,
2013-03-05 04:25:00,11.0,8.0,30.24,NE,42,0.0,-999.0,89,-99.99,,,0.00,weatherlink.com 1.10,2013-03-05 09:25:00,
2013-03-05 04:40:00,11.1,9.0,30.24,NE,42,0.0,-999.0,89,-99.99,,,0.00,weatherlink.com 1.10,2013-03-05 09:40:00,
2013-03-05 04:54:00,11.5,9.0,30.24,NE,42,0.0,-999.0,89,-99.99,,,0.00,weatherlink.com 1.10,2013-03-05 09:54:00,
2013-03-05 05:10:00,11.6,9.0,30.24,NE,42,0.0,-999.0,89,-99.99,,,0.00,weatherlink.com 1.10,2013-03-05 10:10:00,
2013-03-05 05:25:00,11.6,9.0,30.24,NE,41,0.0,-999.0,89,-99.99,,,0.00,weatherlink.com 1.10,2013-03-05 10:25:00,
2013-03-05 05:40:00,11.7,9.0,30.24,NE,42,0.0,-999.0,89,-99.99,,,0.00,weatherlink.com 1.10,2013-03-05 10:40:00,
2013-03-05 05:55:00,11.7,9.0,30.23,NE,42,0.0,-999.0,89,-99.99,,,0.00,weatherlink.com 1.10,2013-03-05 10:55:00,
2013-03-05 06:10:00,11.9,9.0,30.24,NE,42,0.0,-999.0,89,-99.99,,,0.00,weatherlink.com 1.10,2013-03-05 11:10:00,
2013-03-05 06:25:00,12.3,10.0,30.24,NE,42,0.0,-999.0,90,-99.99,,,0.00,weatherlink.com 1.10,2013-03-05 11:25:00,
2013-03-05 06:40:00,12.4,10.0,30.23,NE,42,0.0,-999.0,89,-99.99,,,0.00,weatherlink.com 1.10,2013-03-05 11:40:00,
2013-03-05 06:55:00,12.5,10.0,30.23,NE,42,0.0,-999.0,89,-99.99,,,0.00,weatherlink.com 1.10,2013-03-05 11:55:00,
2013-03-05 07:10:00,12.3,10.0,30.23,NE,42,0.0,-999.0,89,-99.99,,,0.00,weatherlink.com 1.10,2013-03-05 12:10:00,
2013-03-05 07:25:00,12.1,10.0,30.23,NE,42,0.0,-999.0,89,-99.99,,,0.00,weatherlink.com 1.10,2013-03-05 12:25:00,
2013-03-05 07:40:00,12.3,10.0,30.23,NE,42,0.0,-999.0,89,-99.99,,,0.00,weatherlink.com 1.10,2013-03-05 12:40:00,
2013-03-05 07:55:00,13.3,11.0,30.24,NE,41,0.0,-999.0,90,-99.99,,,0.00,weatherlink.com 1.10,2013-03-05 12:55:00,
2013-03-05 08:10:00,14.5,12.0,30.23,NE,41,0.0,-999.0,90,-99.99,,,0.00,weatherlink.com 1.10,2013-03-05 13:10:00,
2013-03-05 08:25:00,15.7,13.0,30.23,NE,42,0.0,-999.0,90,-99.99,,,0.00,weatherlink.com 1.10,2013-03-05 13:25:00,
2013-03-05 08:40:00,16.7,14.0,30.23,NE,42,0.0,-999.0,90,-99.99,,,0.00,weatherlink.com 1.10,2013-03-05 13:40:00,
2013-03-05 08:54:00,18.0,15.0,30.22,NE,42,0.0,-999.0,88,-99.99,,,0.00,weatherlink.com 1.10,2013-03-05 13:54:00,
2013-03-05 09:10:00,20.0,15.0,30.22,NE,41,0.0,-999.0,80,-99.99,,,0.00,weatherlink.com 1.10,2013-03-05 14:10:00,
2013-03-05 09:25:00,20.9,14.0,30.22,NE,42,0.0,-999.0,76,-99.99,,,0.00,weatherlink.com 1.10,2013-03-05 14:25:00,
2013-03-05 09:40:00,21.2,14.0,30.22,NE,41,1.0,-999.0,75,-99.99,,,0.00,weatherlink.com 1.10,2013-03-05 14:40:00,
2013-03-05 09:55:00,21.4,14.0,30.22,North,5,0.0,-999.0,74,-99.99,,,0.00,weatherlink.com 1.10,2013-03-05 14:55:00,
2013-03-05 10:10:00,21.7,15.0,30.21,ENE,58,0.0,-999.0,76,-99.99,,,0.00,weatherlink.com 1.10,2013-03-05 15:10:00,
2013-03-05 10:25:00,22.2,16.0,30.21,ENE,57,0.0,-999.0,77,-99.99,,,0.00,weatherlink.com 1.10,2013-03-05 15:25:00,
2013-03-05 10:40:00,22.9,18.0,30.21,ENE,57,0.0,-999.0,81,-99.99,,,0.00,weatherlink.com 1.10,2013-03-05 15:40:00,
2013-03-05 10:55:00,23.8,19.0,30.21,ENE,57,0.0,-999.0,82,-99.99,,,0.00,weatherlink.com 1.10,2013-03-05 15:55:00,
2013-03-05 11:10:00,24.5,20.0,30.21,NE,38,0.0,-999.0,83,-99.99,,,0.00,weatherlink.com 1.10,2013-03-05 16:10:00,
2013-03-05 11:25:00,24.6,20.0,30.21,West,273,1.0,-999.0,83,-99.99,,,0.00,weatherlink.com 1.10,2013-03-05 16:25:00,
2013-03-05 11:40:00,24.9,20.0,30.20,NE,36,1.0,-999.0,82,-99.99,,,0.00,weatherlink.com 1.10,2013-03-05 16:40:00,
2013-03-05 11:55:00,24.9,20.0,30.20,NE,49,1.0,-999.0,82,-99.99,,,0.00,weatherlink.com 1.10,2013-03-05 16:55:00,
2013-03-05 12:10:00,25.1,20.0,30.21,NE,53,1.0,-999.0,82,-99.99,,,0.00,weatherlink.com 1.10,2013-03-05 17:10:00,
2013-03-05 12:25:00,25.3,21.0,30.21,NE,38,1.0,-999.0,83,-99.99,,,0.00,weatherlink.com 1.10,2013-03-05 17:25:00,
2013-03-05 12:40:00,25.7,21.0,30.21,NE,40,1.0,-999.0,83,-99.99,,,0.00,weatherlink.com 1.10,2013-03-05 17:40:00,
2013-03-05 12:54:00,25.7,21.0,30.20,ENE,64,1.0,-999.0,83,-99.99,,,0.00,weatherlink.com 1.10,2013-03-05 17:54:00,
2013-03-05 13:09:00,25.9,21.0,30.20,ENE,61,1.0,-999.0,83,-99.99,,,0.00,weatherlink.com 1.10,2013-03-05 18:09:00,
2013-03-05 13:24:00,26.0,21.0,30.20,NE,42,3.0,-999.0,82,-99.99,,,0.00,weatherlink.com 1.10,2013-03-05 18:24:00,
2013-03-05 13:39:00,26.3,21.0,30.20,NE,56,1.0,-999.0,81,-99.99,,,0.00,weatherlink.com 1.10,2013-03-05 18:39:00,
2013-03-05 13:54:00,26.1,21.0,30.20,ENE,57,1.0,-999.0,81,-99.99,,,0.00,weatherlink.com 1.10,2013-03-05 18:54:00,
2013-03-05 14:09:00,26.1,21.0,30.19,NE,34,3.0,-999.0,82,-99.99,,,0.00,weatherlink.com 1.10,2013-03-05 19:09:00,
2013-03-05 14:24:00,26.1,22.0,30.19,NNE,26,2.0,-999.0,83,-99.99,,,0.00,weatherlink.com 1.10,2013-03-05 19:24:00,
2013-03-05 14:39:00,25.9,22.0,30.19,NE,38,2.0,-999.0,84,-99.99,,,0.00,weatherlink.com 1.10,2013-03-05 19:39:00,
2013-03-05 14:54:00,25.9,21.0,30.19,NE,56,2.0,-999.0,82,-99.99,,,0.00,weatherlink.com 1.10,2013-03-05 19:54:00,
2013-03-05 15:09:00,25.8,22.0,30.19,NE,49,0.0,-999.0,84,-99.99,,,0.00,weatherlink.com 1.10,2013-03-05 20:09:00,
2013-03-05 15:24:00,25.5,21.0,30.19,ENE,64,0.0,-999.0,84,-99.99,,,0.00,weatherlink.com 1.10,2013-03-05 20:24:00,
2013-03-05 15:39:00,25.8,22.0,30.19,NNE,30,0.0,-999.0,84,-99.99,,,0.00,weatherlink.com 1.10,2013-03-05 20:39:00,
2013-03-05 15:54:00,25.9,22.0,30.19,NNE,12,2.0,-999.0,84,-99.99,,,0.00,weatherlink.com 1.10,2013-03-05 20:54:00,
2013-03-05 16:09:00,25.6,22.0,30.18,NNE,22,2.0,-999.0,86,-99.99,,,0.00,weatherlink.com 1.10,2013-03-05 21:09:00,
2013-03-05 16:25:00,25.4,22.0,30.19,NNE,12,1.0,-999.0,86,-99.99,,,0.00,weatherlink.com 1.10,2013-03-05 21:25:00,
2013-03-05 16:39:00,25.1,22.0,30.19,North,9,2.0,-999.0,86,-99.99,,,0.00,weatherlink.com 1.10,2013-03-05 21:39:00,
2013-03-05 16:54:00,25.3,22.0,30.19,NE,35,8.0,-999.0,86,-99.99,,,0.00,weatherlink.com 1.10,2013-03-05 21:54:00,
2013-03-05 17:10:00,25.6,22.0,30.19,NNE,28,1.0,-999.0,85,-99.99,,,0.00,weatherlink.com 1.10,2013-03-05 22:10:00,
2013-03-05 17:25:00,26.1,22.0,30.19,NNE,26,2.0,-999.0,85,-99.99,,,0.00,weatherlink.com 1.10,2013-03-05 22:25:00,
2013-03-05 17:40:00,26.2,22.0,30.20,NE,42,4.0,-999.0,84,-99.99,,,0.00,weatherlink.com 1.10,2013-03-05 22:40:00,
2013-03-05 17:55:00,26.2,22.0,30.20,NE,48,4.0,-999.0,84,-99.99,,,0.00,weatherlink.com 1.10,2013-03-05 22:55:00,
2013-03-05 18:10:00,26.0,22.0,30.20,NNE,22,1.0,-999.0,84,-99.99,,,0.00,weatherlink.com 1.10,2013-03-05 23:10:00,
2013-03-05 18:25:00,25.9,22.0,30.21,NNE,14,2.0,-999.0,84,-99.99,,,0.00,weatherlink.com 1.10,2013-03-05 23:25:00,
2013-03-05 18:40:00,25.8,22.0,30.21,NE,46,1.0,-999.0,84,-99.99,,,0.00,weatherlink.com 1.10,2013-03-05 23:40:00,
2013-03-05 18:55:00,25.8,22.0,30.21,NE,42,1.0,-999.0,84,-99.99,,,0.00,weatherlink.com 1.10,2013-03-05 23:55:00,
2013-03-05 19:10:00,26.1,22.0,30.21,NE,44,1.0,-999.0,84,-99.99,,,0.00,weatherlink.com 1.10,2013-03-06 00:10:00,
2013-03-05 19:25:00,26.1,22.0,30.21,NNE,26,1.0,-999.0,83,-99.99,,,0.00,weatherlink.com 1.10,2013-03-06 00:25:00,
2013-03-05 19:40:00,26.3,22.0,30.21,NE,43,1.0,-999.0,83,-99.99,,,0.00,weatherlink.com 1.10,2013-03-06 00:40:00,
2013-03-05 19:55:00,26.5,22.0,30.21,ENE,61,0.0,-999.0,83,-99.99,,,0.00,weatherlink.com 1.10,2013-03-06 00:55:00,
2013-03-05 20:10:00,26.6,22.0,30.20,ENE,62,0.0,-999.0,83,-99.99,,,0.00,weatherlink.com 1.10,2013-03-06 01:10:00,
2013-03-05 20:25:00,26.9,22.0,30.20,NE,46,2.0,-999.0,83,-99.99,,,0.00,weatherlink.com 1.10,2013-03-06 01:25:00,
2013-03-05 20:40:00,27.2,22.0,30.20,ENE,60,2.0,-999.0,82,-99.99,,,0.00,weatherlink.com 1.10,2013-03-06 01:40:00,
2013-03-05 20:54:00,27.4,23.0,30.20,NNE,26,0.0,-999.0,82,-99.99,,,0.00,weatherlink.com 1.10,2013-03-06 01:54:00,
2013-03-05 21:10:00,27.4,23.0,30.20,NE,42,0.0,-999.0,82,-99.99,,,0.00,weatherlink.com 1.10,2013-03-06 02:10:00,
2013-03-05 21:25:00,27.4,23.0,30.21,NE,42,0.0,-999.0,82,-99.99,,,0.00,weatherlink.com 1.10,2013-03-06 02:25:00,
2013-03-05 21:40:00,27.7,23.0,30.21,NE,51,1.0,-999.0,81,-99.99,,,0.00,weatherlink.com 1.10,2013-03-06 02:40:00,
2013-03-05 21:55:00,27.8,23.0,30.21,NE,51,0.0,-999.0,82,-99.99,,,0.00,weatherlink.com 1.10,2013-03-06 02:55:00,
2013-03-05 22:10:00,27.8,23.0,30.21,NE,51,0.0,-999.0,82,-99.99,,,0.00,weatherlink.com 1.10,2013-03-06 03:10:00,
2013-03-05 22:25:00,27.9,23.0,30.21,NE,34,0.0,-999.0,83,-99.99,,,0.00,weatherlink.com 1.10,2013-03-06 03:25:00,
2013-03-05 22:40:00,28.0,24.0,30.20,NE,34,0.0,-999.0,84,-99.99,,,0.00,weatherlink.com 1.10,2013-03-06 03:40:00,
2013-03-05 22:55:00,28.1,24.0,30.21,NE,38,0.0,-999.0,84,-99.99,,,0.00,weatherlink.com 1.10,2013-03-06 03:55:00,
2013-03-05 23:10:00,28.4,25.0,30.21,NE,38,2.0,-999.0,86,-99.99,,,0.00,weatherlink.com 1.10,2013-03-06 04:10:00,
2013-03-05 23:25:00,29.0,25.0,30.21,NE,38,1.0,-999.0,86,-99.99,,,0.00,weatherlink.com 1.10,2013-03-06 04:25:00,
2013-03-05 23:40:00,29.2,26.0,30.21,NE,48,0.0,-999.0,86,-99.99,,,0.00,weatherlink.com 1.10,2013-03-06 04:40:00,
2013-03-05 23:55:00,29.2,25.0,30.21,NE,48,0.0,-999.0,85,-99.99,,,0.00,weatherlink.com 1.10,2013-03-06 04:55:00,